TUBIN
1 48900U 21059X   25253.59301822  .00068683  00000-0  57306-3 0  9990
2 48900  97.6775  70.9958 0002797 240.2780 119.8203 15.69855883234584
LEDSAT
1 49069U 21073D   25253.29833708  .00206228  00000-0  11167-2 0  9996
2 49069  97.3788 339.6765 0003211 117.0689 243.0906 15.79497071225968
CUTE
1 49263U 21088D   25253.19330637  .00030640  00000-0  52225-3 0  9994
2 49263  97.4430 332.3745 0005197 245.7663 114.3047 15.51304331218765
TeikyoSat 4
1 49396U 21102B   25253.32694735  .00002130  00000-0  14213-3 0  9993
2 49396  97.4028 288.3947 0012764 168.5933 191.5588 15.08011356210526
Z-Sat
1 49399U 21102E   25253.36643759  .00003328  00000-0  18020-3 0  9990
2 49399  97.3724 292.1204 0019087 138.4353 221.8335 15.15152937211029
KOSEN 1
1 49402U 21102H   25252.06153660  .00007032  00000-0  31452-3 0  9998
2 49402  97.3623 294.9828 0017119 116.8819 243.4169 15.21476498211196
HO-113
1 50466U 21131B   25253.60626568  .00000539  00000-0  18186-3 0  9999
2 50466  98.5083 342.5003 0003728 202.2083 157.8945 14.40917726194846
SNUGLITE 2
1 52899U 22065F   25253.34885547  .00001289  00000-0  25818-3 0  9996
2 52899  98.1820  34.4960 0007659 173.9855 186.1440 14.63430468170050
UmKA 1 (RS40S)
1 57172U 23091G   25253.42165674  .00005850  00000-0  30406-3 0  9993
2 57172  97.5489 308.3346 0014282  19.8757 340.3029 15.16377176121545
CubeBel-2 (EU11S)
1 57175U 23091K   25253.38891785  .00008339  00000-0  37848-3 0  9992
2 57175  97.5485 310.0519 0011906  26.3770 333.8069 15.20996295121651
ENSO
1 58470U 23185J   25253.64037376  .00103458  00000-0  88512-3 0  9994
2 58470  97.3627 332.4487 0004162 115.8786 244.2905 15.69124394 99558
SONATE-2
1 59112U 24043Q   25253.32551017  .00022651  00000-0  58887-3 0  9997
2 59112  97.5253  26.6137 0010813 140.4583 219.7453 15.38884188 84584
MO-122
1 60209U 24125G   25253.31293859  .00023475  00000-0  59734-3 0  9990
2 60209  97.2675 104.0427 0017969 158.4909 201.7096 15.39423006 66203
GRBBeta
1 60237U 24128C   25253.34557663  .00004279  00000-0  31754-3 0  9996
2 60237  61.9901 115.9383 0056670  77.5927 283.1499 15.03425926 64145
Curium One
1 60242U 24128H   25253.34677592  .00008363  00000-0  55725-3 0  9998
2 60242  61.9796 112.7441 0056377  74.3955 286.3350 15.06492275 64205
ROBUSTA-3A
1 60243U 24128J   25253.18067083  .00007808  00000-0  52921-3 0  9997
2 60243  61.9867 114.4794 0055978  71.8269 288.8907 15.05958817 64169
CatSat
1 60246U 24125J   25253.02066675  .00016285  00000-0  49795-3 0  9990
2 60246  97.2491 101.8718 0041494 123.4205 237.1017 15.33066461 64137
HYPERVIEW-1G (RS66S)
1 61772U 24199AP  25253.43717329  .00021543  00000-0  55105-3 0  9995
2 61772  97.3371 122.2624 0011343 210.0119 150.0478 15.39384236 91223
AO-123
1 61781U 24199AY  25253.38589762  .00007514  00000-0  26398-3 0  9991
2 61781  97.3395 119.9590 0014037 223.4898 136.5237 15.29582911 91062
ZIMSAT 2
1 61783U 24199BA  25253.41275374  .00047171  00000-0  89287-3 0  9997
2 61783  97.3330 123.7504 0010523 199.7460 160.3384 15.48179805 94478
HADES-R (SO-124)
1 62690U 25009CK  25253.41326763  .00046119  00000-0  12966-2 0  9995
2 62690  97.4026 334.2390 0003093 141.6401 218.5063 15.36359809 36361
HYDRA-T
1 62692U 25009CM  25253.31313466  .00056695  00000-0  15683-2 0  9991
2 62692  97.4025 334.2203 0002730 139.8593 220.2853 15.36811928 36354
JINJUSat 1B
1 63210U 25052A   25252.92975637  .00010512  00000-0  45397-3 0  9990
2 63210  97.4271 145.9351 0004595  29.6351 330.5145 15.22674450 27298
NUSHSAT 1
1 63211U 25052B   25253.43030414  .00012253  00000-0  52105-3 0  9992
2 63211  97.4262 146.4643 0004799  33.8213 326.3329 15.23159775 27374
TEVEL2-4
1 63213U 25052D   25252.67609837  .00011996  00000-0  51663-3 0  9991
2 63213  97.4179 145.4469 0004711  52.4322 307.7342 15.22734957 27255
TEVEL2-5
1 63214U 25052E   25253.33544930  .00013914  00000-0  59891-3 0  9991
2 63214  97.4178 146.0936 0004625  50.6501 309.5145 15.22716936 27353
TEVEL2-6
1 63215U 25052F   25252.61714354  .00011761  00000-0  50773-3 0  9999
2 63215  97.4183 145.3766 0004789  52.9804 307.1870 15.22656747 27245
TEVEL2-1
1 63217U 25052H   25253.43092661  .00011452  00000-0  49789-3 0  9994
2 63217  97.4156 146.0637 0005242  58.7866 301.3883 15.22422128 27366
TEVEL2-3
1 63218U 25052J   25253.43101305  .00011304  00000-0  49136-3 0  9993
2 63218  97.4155 146.0657 0005305  59.2467 300.9292 15.22430668 27368
TEVEL2-2
1 63219U 25052K   25253.43162714  .00011329  00000-0  49261-3 0  9991
2 63219  97.4155 146.0640 0005289  59.1523 301.0233 15.22418816 27362
TEVEL2-9
1 63237U 25052AD  25253.44127082  .00011195  00000-0  50520-3 0  9992
2 63237  97.4219 145.8968 0009702  60.1834 300.0365 15.21120392 27345
TEVEL2-7
1 63238U 25052AE  25252.65853554  .00011721  00000-0  53040-3 0  9990
2 63238  97.4222 145.1141 0009776  62.0104 298.2120 15.21013970 27225
TEVEL2-8
1 63239U 25052AF  25253.32032175  .00013417  00000-0  60679-3 0  9994
2 63239  97.4219 145.7553 0009779  60.5304 299.6906 15.21001205 27329
HYDRA-W
1 63490U 25052BL  25253.17025807  .00035684  00000-0  12875-2 0  9994
2 63490  97.4167 146.5899 0012927  57.0826 303.1655 15.28347154 27371
HADES-ICM (SO-125)
1 63492U 25052BN  25252.69544967  .00029014  00000-0  10741-2 0  9995
2 63492  97.4175 146.0169 0013319  60.8904 299.3667 15.27540563 27290
